Higginson, AR

12:04 AM CST on February 25, 2017 (GMT -0600)
Searcy Municipal

Weather History for KSRC - January, 2004

Change the Weather History Date:

Thursday, January 1, 2004

  Actual Average Record
Temperature  
Mean Temperature 50 °F -  
Max Temperature 60 °F 45 °F 75 °F (1952)
Min Temperature 39 °F 26 °F 9 °F (1977)
Degree Days  
Heating Degree Days 16    
Moisture  
Dew Point 51 °F    
Average Humidity 93    
Maximum Humidity 100    
Minimum Humidity 71    
Precipitation  
Precipitation 0.21 in - - ()
Sea Level Pressure  
Sea Level Pressure 30.19 in    
Wind  
Wind Speed 3 mph (SSW)    
Max Wind Speed 12 mph    
Max Gust Speed -    
Visibility 6 miles    
Events Rain , Thunderstorm    
Averages and records for this station are not official NWS values.
T = Trace of Precipitation, MM = Missing Value Source: NWS Daily Summary

Daily Weather History Graph

Daily Weather History Graph

Search for Another Location

Airport or City:

Trip Planner

Search our weather history database for the weather conditions in past years. The results will help you decide how hot, cold, wet, or windy it might be!

Date:

Astronomy

Jan. 01, 2004 Rise Set
Actual Time 7:15 AM CST 5:05 PM CST
Civil Twilight 6:47 AM CST 5:33 PM CST
Nautical Twilight 6:15 AM CST 6:05 PM CST
Astronomical Twilight 5:44 AM CST 6:36 PM CST
Moon 1:07 PM CST (1/1) 1:55 AM CST (1/1)
Length of Visible Light 10h 46m
Length of Day
9h 49m
Waxing Gibbous, 72% of the Moon is Illuminated
Jan 1
Waxing Gibbous
Jan 7
Full
Jan 14
Last Quarter
Jan 21
New
Jan 29
First Quarter

Hourly Weather History & Observations

Time (CST) Temp. Windchill Dew Point Humidity Pressure Visibility Wind Dir Wind Speed Gust Speed Precip Events Conditions
12:53 AM 39.0 °F - 36.0 °F 89% 30.29 in 10.0 mi Calm Calm - N/A   Scattered Clouds
1:53 AM 39.9 °F - 37.0 °F 89% 30.28 in 10.0 mi Calm Calm - N/A   Partly Cloudy
2:53 AM 42.1 °F 40.2 °F 37.9 °F 85% 30.29 in 10.0 mi NNE 3.5 mph - N/A   Mostly Cloudy
3:53 AM 42.1 °F - 39.0 °F 89% 30.28 in 10.0 mi Calm Calm - N/A   Overcast
4:53 AM 44.1 °F 41.5 °F 39.9 °F 85% 30.27 in 10.0 mi NE 4.6 mph - 0.00 in   Overcast
5:53 AM 44.1 °F 42.5 °F 39.9 °F 85% 30.27 in 10.0 mi East 3.5 mph - N/A   Overcast
6:53 AM 44.1 °F 41.5 °F 39.9 °F 85% 30.29 in 10.0 mi South 4.6 mph - N/A   Overcast
7:22 AM 44.6 °F - 39.2 °F 81% 30.29 in 10.0 mi Calm Calm - N/A   Mostly Cloudy
7:53 AM 46.0 °F 44.8 °F 39.0 °F 76% 30.30 in 10.0 mi SE 3.5 mph - N/A   Overcast
8:53 AM 48.0 °F - 41.0 °F 77% 30.29 in 10.0 mi SSE 6.9 mph - N/A   Overcast
9:53 AM 53.1 °F - 44.1 °F 71% 30.31 in 10.0 mi SW 8.1 mph - N/A   Overcast
10:03 AM 53.6 °F - 44.6 °F 72% 30.29 in 10.0 mi South 10.4 mph - N/A   Overcast
10:53 AM 54.0 °F - 48.9 °F 83% 30.28 in 10.0 mi SSW 8.1 mph - 0.00 in   Overcast
11:24 AM 53.6 °F - 51.8 °F 94% 30.25 in 1.8 mi SW 4.6 mph - 0.04 in Rain Rain
11:53 AM 52.0 °F - 51.1 °F 97% 30.25 in 1.2 mi SW 8.1 mph - 0.19 in Rain Heavy Rain
11:58 AM 51.8 °F - 51.8 °F 100% 30.23 in 2.0 mi SSW 6.9 mph - 0.00 in Rain , Thunderstorm Light Thunderstorms and Rain
12:07 PM 53.6 °F - 51.8 °F 94% 30.23 in 5.0 mi WSW 5.8 mph - 0.00 in Thunderstorm Overcast
12:36 PM 53.6 °F - 51.8 °F 94% 30.22 in 3.0 mi SW 8.1 mph - 0.02 in Rain Light Rain
12:53 PM 54.0 °F - 52.0 °F 93% 30.20 in 7.0 mi South 11.5 mph - 0.02 in   Overcast
1:11 PM 53.6 °F - 51.8 °F 94% 30.18 in 9.0 mi SSW 6.9 mph - N/A   Overcast
1:53 PM 54.0 °F - 53.1 °F 97% 30.19 in 8.0 mi SSW 9.2 mph - N/A   Overcast
2:19 PM 53.6 °F - 53.6 °F 100% 30.17 in 6.0 mi SW 3.5 mph - N/A   Overcast
2:28 PM 53.6 °F - 53.6 °F 100% 30.17 in 5.0 mi Calm Calm - N/A   Overcast
2:41 PM 53.6 °F - 53.6 °F 100% 30.18 in 5.0 mi Calm Calm - N/A   Overcast
2:53 PM 54.0 °F - 53.1 °F 97% 30.18 in 5.0 mi South 3.5 mph - N/A   Overcast
3:02 PM 53.6 °F - 53.6 °F 100% 30.16 in 5.0 mi Calm Calm - N/A   Overcast
3:09 PM 53.6 °F - 53.6 °F 100% 30.16 in 4.0 mi SSW 3.5 mph - N/A   Overcast
3:34 PM 55.4 °F - 53.6 °F 94% 30.16 in 4.0 mi South 4.6 mph - N/A   Overcast
3:53 PM 55.9 °F - 55.0 °F 97% 30.17 in 5.0 mi SSW 3.5 mph - N/A   Mostly Cloudy
4:32 PM 57.2 °F - 55.4 °F 94% 30.16 in 6.0 mi WSW 3.5 mph - N/A   Overcast
4:53 PM 55.9 °F - 55.0 °F 97% 30.16 in 5.0 mi South 5.8 mph - N/A   Overcast
5:13 PM 55.4 °F - 53.6 °F 94% 30.14 in 5.0 mi Calm Calm - N/A   Mostly Cloudy
5:53 PM 54.0 °F - 54.0 °F 100% 30.15 in 3.0 mi Calm Calm - N/A   Scattered Clouds
6:00 PM 53.6 °F - 53.6 °F 100% 30.14 in 1.8 mi Calm Calm - N/A   Mostly Cloudy
6:27 PM 55.4 °F - 53.6 °F 94% 30.14 in 3.0 mi Calm Calm - N/A   Overcast
6:53 PM 54.0 °F - 53.1 °F 97% 30.15 in 2.5 mi Calm Calm - N/A   Overcast
7:01 PM 53.6 °F - 53.6 °F 100% 30.14 in 1.2 mi Calm Calm - N/A   Overcast
7:13 PM 53.6 °F - 53.6 °F 100% 30.14 in 3.0 mi Calm Calm - N/A   Overcast
7:53 PM 55.0 °F - 55.0 °F 100% 30.14 in 4.0 mi Calm Calm - N/A   Scattered Clouds
8:04 PM 53.6 °F - 53.6 °F 100% 30.13 in 4.0 mi Calm Calm - N/A Thunderstorm Mostly Cloudy
8:18 PM 55.4 °F - 55.4 °F 100% 30.13 in 2.5 mi Calm Calm - N/A   Mostly Cloudy
8:29 PM 55.4 °F - 55.4 °F 100% 30.12 in 1.2 mi Calm Calm - 0.00 in Rain Light Rain
8:53 PM 57.0 °F - 55.9 °F 96% 30.13 in 5.0 mi Calm Calm - 0.00 in Rain Light Rain
9:28 PM 53.6 °F - 53.6 °F 100% 30.11 in 1.8 mi SSW 8.1 mph - 0.00 in   Partly Cloudy
9:42 PM 59.0 °F - 57.2 °F 94% 30.12 in 3.0 mi West 5.8 mph - 0.00 in   Partly Cloudy
9:53 PM 57.9 °F - 57.9 °F 100% 30.14 in 6.0 mi West 4.6 mph - 0.00 in   Mostly Cloudy
10:53 PM 59.0 °F - 59.0 °F 100% 30.14 in 6.0 mi WSW 4.6 mph - N/A   Overcast
11:07 PM 60.8 °F - 59.0 °F 94% 30.12 in 7.0 mi SSW 8.1 mph - N/A   Overcast
11:28 PM 60.8 °F - 59.0 °F 94% 30.11 in 7.0 mi SW 6.9 mph - N/A   Mostly Cloudy
11:53 PM 60.1 °F - 59.0 °F 96% 30.11 in 7.0 mi SSW 10.4 mph - N/A   Mostly Cloudy